This is the latest recevied weather packets stored in our database for station/object SP9MUF-14. If no packets are shown the sender has not sent any weather packets the latest 1 day(s).
| Time | Temp. | Humidity | Pressure | Rain* | Wind** | Luminosity | Snow |
|---|---|---|---|---|---|---|---|
| 1778014145 | 18.89° C | 35% | 1007 hPa | 0 mm | - | 0 W/m² | - |
| 1778013536 | 18.89° C | 35% | 1006.9 hPa | 0 mm | - | 0 W/m² | - |
| 1778013232 | 18.89° C | 35% | 1006.9 hPa | 0 mm | - | 0 W/m² | - |
| 1778012928 | 18.89° C | 35% | 1007 hPa | 0 mm | - | 0 W/m² | - |
| 1778012624 | 18.89° C | 36% | 1007 hPa | 0 mm | - | 0 W/m² | - |
| 1778012320 | 18.89° C | 35% | 1006.9 hPa | 0 mm | - | 0 W/m² | - |
| 1778012016 | 18.89° C | 35% | 1006.8 hPa | 0 mm | - | 0 W/m² | - |
| 1778010800 | 18.89° C | 33% | 1006.7 hPa | 0 mm | - | 0 W/m² | - |
| 1778010496 | 18.89° C | 34% | 1006.8 hPa | 0 mm | - | 0 W/m² | - |
| 1778009888 | 20° C | 33% | 1006.7 hPa | 0 mm | - | 0 W/m² | - |
| 1778009584 | 20° C | 33% | 1006.9 hPa | 0 mm | - | 0 W/m² | - |
| 1778009280 | 20° C | 32% | 1006.7 hPa | 0 mm | - | 0 W/m² | - |
| 1778008976 | 20° C | 32% | 1006.8 hPa | 0 mm | - | 0 W/m² | - |
| 1778008671 | 20° C | 32% | 1006.7 hPa | 0 mm | - | 0 W/m² | - |
| 1778007456 | 20.56° C | 30% | 1006.6 hPa | 0 mm | - | 0 W/m² | - |
| 1778006847 | 20.56° C | 30% | 1006.4 hPa | 0 mm | - | 0 W/m² | - |
| 1778006543 | 21.67° C | 29% | 1006.4 hPa | 0 mm | - | 0 W/m² | - |
| 1778005632 | 21.67° C | 28% | 1006.2 hPa | 0 mm | - | 0 W/m² | - |
| 1778005023 | 22.78° C | 28% | 1006.2 hPa | 0 mm | - | 0 W/m² | - |
| 1778003807 | 23.89° C | 25% | 1005.9 hPa | 0 mm | - | 3 W/m² | - |
| 1778003503 | 23.89° C | 26% | 1005.8 hPa | 0 mm | - | 5 W/m² | - |
| 1778002287 | 25° C | 25% | 1005.7 hPa | 0 mm | - | 25 W/m² | - |
| 1778001374 | 25° C | 23% | 1005.6 hPa | 0 mm | - | 36 W/m² | - |
| 1778000464 | 25.56° C | 22% | 1005.5 hPa | 0 mm | - | 43 W/m² | - |
| 1778000158 | 25.56° C | 22% | 1005.5 hPa | 0 mm | - | 47 W/m² | - |
* Rain latest hour (hover to see other rain measurements)
** Current wind speed in m/s (hover to see current wind gust speed)